COSMOS 2251 DEB, 35773

Orbit data source: Space-Track

COSMOS 2251 DEB, 35773 is space debris in LEO originally from a launch on Wed, 16 Jun 1993 UTC launched from the Plesetsk Missile And Space Complex (PKMTR). The debris from Iridium 33, an American commercial communications satellite, has been tracked extensively since its accidental collision with the defunct Russian satellite Cosmos 2251 in 2009. This event, occurring at high speed in low Earth orbit (LEO), generated thousands of pieces of space debris, significantly increasing the risk of further collisions. The Iridium 33 debris cloud has impacted space traffic management and orbital debris mitigation strategies, making it a subject of ongoing study in space situational awareness.

Loading next visibility...
Identifier
35773, 1993-036ART
Orbit
LEO
Country
Flag of CISCIS
Related business
Manufacturer
Unknown
Mission
Spacecraft
Bus & Motor
Unknown
Mass
Unknown
Launch date (UTC)
1993-06-16 (33 years ago)
Launch vehicle
Unknown
Launch site
Plesetsk Missile And Space Complex (PKMTR)
Object type
Payload
Rocket body
Debris
Shape & HBR
Unknown shape, 0.1 m
Radar Cross Section
Small (<0.1 m²)

Expand to show TLE details & history
Last TLE update: 14 hours ago

TLE from 14 hours ago
0 COSMOS 2251 DEB
1 35773U 93036ART 25351.66476802  .00002204  00000-0  43827-3 0  9996
2 35773  74.0080 331.3734 0045344 129.9949 230.5212 14.62095725869114
Epoch: 2025-12-17T15:57Z
TLE epoch observation values (Epoch: 2025-12-17T15:57:15.956Z)
Latitude
-0.00009°
Longitude
5.52551°
Altitude
709.513 km
Speed
7.49 km/s
True Right ascension
22h 05m 29s
True Declination
0° 00' 00"
Sunlit
Object was in daylight at epoch
Visualization orbit readout
Latitude
Unknown
Longitude
Unknown
Altitude
Unknown
Speed
Unknown
Apparent Right ascension
Unknown
Apparent Declination
Unknown
Sunlit
N/A
Visualization observer readout
Local Sidereal Time
04:33:02
Azimuth
Unknown
Elevation
Unknown
Doppler factor
Unknown
Orbital elements
Apogee altitude
716.035 km
Perigee altitude
651.99 km
Semi-major axis
7,062.15 km
Eccentricity
0.00453
Inclination
74.008°
RAAN
331.3734°
Arg. of periapsis
129.9949°
True anomaly
230.12158°
Mean anomaly
230.5212°
Eccentric anomaly
230.32125°
Mean motion
3.65711 °/min
Orbital period
98.44 mins
BSTAR
0.00043827

Documentation

Showing up to 5 results
|